RH
72 68 65 62 61 58 59 62 60 58 59 51 48 44 46 49 48 50 64 68 65 57 53 54 56 60 63 68 72 74 76 78 78 84 88 87 84 86 86 84 83 83 84
68 67 65 63 61 59 60 58 58 62 62 55 50 47 45 47 46 50 51 69 68 66 62 57 57 59 60 64 69 72 73 74 77 80 86 89 86 87 87 86 85 85 85
62 65 67 66 64 63 60 62 64 61 64 56 53 52 51 52 51 49 53 54 62 73 76 71 65 63 63 61 62 63 64 69 72 75 84 89 89 87 88 88 88 86 86
54 63 66 68 67 70 66 66 65 63 62 62 62 59 49 48 48 48 48 50 51 43 74 79 76 69 62 58 57 55 56 60 64 68 75 85 88 91 90 89 88 87 88
58 64 64 69 70 68 68 67 61 66 66 65 57 54 58 53 48 37 42 48 52 48 52 71 78 74 71 64 55 53 52 54 58 62 68 76 86 89 94 92 90 89 89
54 60 61 68 70 66 66 69 74 66 67 64 46 46 57 52 51 56 47 42 43 43 47 47 71 73 77 69 58 51 49 50 52 54 60 67 75 82 89 92 93 92 90
52 59 60 60 61 62 66 65 64 65 61 68 63 60 57 58 65 58 47 41 42 41 41 46 61 57 61 74 65 52 46 47 50 53 56 60 67 77 82 84 91 92 92
50 43 57 56 59 63 65 69 73 66 60 59 64 59 59 51 57 53 50 52 46 40 39 40 48 47 48 60 67 60 49 49 50 53 54 60 67 75 71 73 77 83 91
46 49 54 58 62 63 64 66 67 67 68 61 64 68 64 63 56 53 52 49 67 67 81 66 43 42 53 50 57 63 69 65 55 50 51 58 63 66 67 67 67 69 79
52 46 50 59 63 66 66 69 52 72 72 69 70 60 70 75 89 81 68 62 58 69 83 77 71 56 48 53 60 66 74 77 70 56 52 54 60 61 66 62 65 68 75
53 50 52 59 66 64 67 71 69 74 77 82 79 77 78 71 74 89 81 79 70 73 80 92 86 87 69 47 51 70 72 77 76 73 66 56 56 59 60 64 63 66 71
54 55 53 62 66 68 66 68 77 77 86 86 81 79 84 78 74 75 78 81 85 80 79 85 96 95 90 72 52 73 79 81 74 72 72 70 62 59 58 57 59 62 66
59 58 60 63 64 64 65 65 73 78 80 86 83 85 86 84 83 74 79 83 84 76 89 86 88 89 80 90 82 77 76 78 71 76 74 75 73 74 72 70 67 64 62
61 59 63 63 63 67 70 71 77 79 80 85 76 78 82 86 86 89 91 94 94 94 87 84 81 84 89 84 80 74 69 74 76 81 78 74 75 62 70 73 74 70 68
48 64 68 64 65 68 72 76 80 80 83 85 87 87 85 84 86 82 85 85 90 94 81 64 82 81 86 85 83 70 59 72 77 85 78 66 71 66 65 62 63 65 65
58 61 67 69 69 69 68 70 79 77 78 84 80 81 86 74 70 71 76 81 81 81 85 68 52 49 42 37 61 66 56 74 79 80 77 64 64 64 66 65 67 68 67
61 60 61 63 62 64 82 84 84 78 72 72 74 71 71 67 69 64 61 55 56 62 65 52 49 47 50 56 44 42 51 66 72 76 73 71 73 71 70 67 66 63 65
62 58 60 60 64 67 79 85 83 79 74 74 68 66 64 50 58 56 53 52 54 55 57 55 54 51 51 49 49 54 42 31 48 66 74 73 72 74 74 73 71 72 75
58 56 49 50 47 50 49 52 53 55 56 54 53 54 53 56 60 58 58 58 55 44 54 56 59 56 55 53 49 50 48 55 43 53 79 78 77 77 80 77 73 73 73
49 46 46 47 50 44 41 51 49 57 58 53 56 54 52 52 57 63 60 66 55 62 58 58 56 54 56 52 54 52 60 56 57 33 44 57 75 76 76 74 76 75 77
44 44 43 48 50 45 50 65 59 60 60 57 57 49 50 55 61 62 47 61 65 67 67 63 62 59 56 59 62 60 65 68 66 65 66 66 64 70 69 77 66 74 78
45 47 50 51 55 36 69 69 70 69 60 59 61 55 52 56 56 64 68 67 70 70 63 64 62 64 61 60 63 70 79 81 81 69 74 77 71 73 68 66 65 75 78
52 56 55 54 57 61 67 69 69 65 62 60 59 58 54 44 61 55 69 72 70 78 78 75 71 72 70 64 63 70 76 81 84 77 76 80 75 80 71 49 79 71 70
54 55 59 57 60 53 71 70 69 73 66 65 64 62 62 63 67 65 67 77 73 69 68 65 76 78 71 65 70 75 81 80 86 83 77 85 82 86 81 80 71 73 73
55 58 58 67 71 69 70 79 82 83 80 75 68 69 69 69 66 66 74 84 83 74 62 68 71 75 76 75 75 79 86 88 94 90 79 76 81 92 94 95 92 74 73
50 64 72 74 72 76 76 72 79 91 87 80 79 73 67 72 89 88 96 96 96 85 76 82 80 72 66 80 88 89 90 89 83 85 66 70 74 83 91 93 90 86 95
Wind_Speed
3 2 2 2 3 3 3 2 3 3 4 4 5 5 5 6 6 3 2 9 8 7 9 12 13 12 11 9 7 5 4 6 8 10 7 9 12 12 13 14 15 14 14
1 2 3 3 4 3 2 2 4 4 5 4 6 7 7 6 6 6 3 5 10 10 10 11 12 12 10 9 7 6 5 4 4 8 12 13 12 13 12 13 14 14 14
3 3 3 4 4 3 3 5 5 4 5 5 7 6 6 7 6 7 6 4 6 11 10 11 12 12 11 10 7 6 5 4 4 5 7 11 13 11 10 12 13 14 15
1 2 3 4 4 4 4 4 4 5 5 4 4 5 6 7 9 10 8 6 6 7 10 13 13 13 14 13 12 9 7 6 6 7 4 5 5 7 7 11 15 15 15
6 5 4 5 6 4 5 5 6 5 4 4 6 5 5 5 6 7 10 9 8 7 8 15 17 15 14 14 14 13 11 8 5 4 6 7 10 11 11 9 12 14 15
6 6 5 6 6 5 5 5 6 5 5 6 9 9 6 7 7 6 8 8 10 12 10 13 10 9 14 15 14 14 13 12 10 9 8 5 5 4 12 14 15 12 15
7 7 5 6 6 6 6 6 6 7 6 5 7 8 7 7 7 8 8 9 10 12 15 11 10 9 9 19 17 18 16 14 12 10 9 9 5 6 6 6 10 13 14
7 8 6 5 5 5 7 7 6 6 6 7 8 9 11 10 6 7 9 9 14 10 14 14 11 13 11 9 10 18 17 16 14 12 10 10 8 9 10 8 8 9 13
5 7 6 5 5 5 5 6 6 7 6 7 8 5 10 12 10 6 8 10 9 7 3 6 13 12 9 10 12 12 12 12 13 13 12 11 9 10 10 10 9 10 10
6 7 7 7 6 4 6 5 7 6 5 6 5 8 10 8 5 9 4 9 10 9 7 4 4 12 8 6 9 8 11 7 8 11 12 13 12 11 11 11 10 9 10
7 7 7 7 5 5 6 7 6 6 4 4 4 4 4 8 8 4 9 8 10 10 10 6 9 4 12 8 4 7 12 8 7 7 11 13 15 13 12 13 12 10 9
5 6 7 6 6 6 6 6 5 8 6 5 5 5 4 2 6 7 8 9 7 7 10 6 6 5 6 8 8 9 9 8 7 1 5 9 13 15 15 15 14 13 12
4 6 6 6 4 5 5 5 6 4 3 3 3 2 3 3 3 6 7 9 9 8 5 5 2 3 4 3 5 5 8 9 8 4 2 6 6 6 10 11 13 15 15
4 6 7 7 7 8 6 7 5 5 5 5 6 4 4 4 3 4 4 4 7 4 5 9 3 4 4 6 7 7 5 10 10 9 5 3 2 2 4 2 1 3 4
6 7 7 8 7 6 6 7 5 6 5 5 8 6 5 5 5 5 4 6 6 6 7 6 3 6 3 7 9 8 9 13 13 10 8 5 3 3 2 4 3 3 4
7 7 7 8 9 9 9 10 7 7 7 5 5 6 8 7 8 6 5 6 6 6 10 4 8 6 8 5 9 10 9 13 12 11 10 9 8 7 6 5 3 3 3
8 8 8 7 9 9 5 4 7 8 7 8 6 7 8 10 8 8 7 8 7 5 8 6 5 5 4 5 6 7 2 3 7 16 15 13 12 11 10 8 6 5 5
6 7 6 7 7 7 6 7 8 8 9 9 10 10 11 8 9 7 6 9 6 6 5 10 4 4 5 6 5 5 4 4 5 14 16 14 14 14 12 11 9 6 5
6 6 6 7 7 7 8 6 6 6 7 8 10 12 12 10 7 6 6 5 5 6 8 6 5 4 4 4 5 4 5 5 4 5 13 16 14 11 9 10 10 9 9
6 6 6 6 7 7 8 7 8 8 8 9 10 14 14 13 11 9 7 5 5 6 7 8 8 7 5 5 4 4 5 3 4 5 6 4 11 13 14 13 12 11 12
6 6 7 6 7 7 6 6 7 8 9 10 10 13 14 16 21 9 6 5 5 3 4 7 8 8 7 5 4 5 4 3 4 2 2 3 2 3 8 14 14 15 14
5 6 6 6 6 6 8 8 9 7 10 11 12 13 13 18 15 13 8 8 8 6 9 7 8 8 10 9 6 5 4 4 4 4 4 4 4 4 3 2 8 6 6
6 6 6 5 4 4 5 8 8 6 8 10 13 12 12 10 14 10 11 14 7 8 11 7 10 10 10 11 10 8 5 4 3 4 4 4 3 4 3 4 9 5 4
6 6 5 4 4 4 9 8 6 6 7 9 12 13 13 12 10 12 7 7 8 7 7 7 9 11 10 10 7 6 6 6 4 4 4 5 3 4 4 3 7 9 6
6 3 5 6 6 7 11 9 8 5 7 9 11 12 13 12 16 20 10 8 8 9 11 17 18 18 18 18 16 8 7 7 6 4 4 4 4 4 3 3 4 10 12
5 4 3 4 7 7 8 10 10 3 7 8 10 11 17 15 9 11 7 7 8 8 7 7 7 8 10 10 16 11 8 9 7 7 7 6 3 2 4 4 4 6 2
Wind_Direction
64 353 322 315 312 291 292 329 319 305 328 282 243 232 275 275 261 274 174 188 181 210 249 257 247 239 227 221 215 211 207 211 215 217 211 244 234 223 211 212 210 208 209
35 340 345 318 309 309 336 305 259 252 246 236 257 235 230 249 281 273 239 203 199 197 214 240 248 247 240 234 226 222 219 206 198 209 214 219 217 219 210 215 207 207 209
358 348 316 290 279 290 313 284 271 256 248 233 230 232 216 222 221 246 258 192 197 217 211 220 232 225 216 218 216 216 220 225 236 220 211 211 220 209 204 209 212 209 208
284 293 311 312 302 310 290 290 288 277 273 263 256 243 231 215 215 214 222 215 184 202 213 212 220 215 213 204 199 201 208 223 234 243 233 237 263 224 226 219 211 210 211
25 22 337 308 318 309 289 284 286 262 265 295 289 277 268 241 233 224 215 216 208 205 192 210 206 207 214 213 206 201 202 206 215 240 247 234 211 217 220 228 222 218 212
8 348 319 306 301 298 295 303 316 318 301 287 284 287 282 268 255 234 230 216 211 215 203 198 202 207 205 210 219 221 213 209 215 221 223 261 215 207 219 227 229 230 236
13 352 320 328 333 323 316 319 322 307 299 300 302 294 297 294 282 260 255 233 219 210 211 195 185 197 205 209 210 220 223 217 217 224 234 225 238 190 239 238 237 219 244
1 325 305 302 336 343 333 322 327 325 322 322 314 309 304 295 286 287 278 259 249 238 215 206 192 200 200 193 205 213 214 216 208 213 232 249 237 207 207 234 240 243 243
293 302 324 348 339 350 330 315 308 319 329 323 316 311 311 299 308 307 298 308 317 285 47 309 230 223 193 183 195 202 198 215 211 212 215 226 239 245 207 219 231 240 239
323 346 346 353 333 341 315 309 333 319 328 313 342 10 7 8 341 313 341 334 335 345 303 304 332 302 203 155 144 180 189 186 236 229 227 224 226 238 234 226 237 246 240
356 352 358 338 348 332 325 306 310 330 7 13 358 5 355 355 0 321 316 347 337 348 356 9 342 17 329 358 32 149 158 178 214 254 249 231 229 225 236 237 235 243 252
352 338 343 336 335 345 327 333 36 45 36 29 13 12 17 345 324 310 308 310 300 304 330 10 345 349 346 322 331 141 159 152 165 219 311 287 250 238 234 234 235 234 243
335 328 332 330 327 320 326 6 1 85 68 63 35 358 321 301 260 287 292 291 294 307 291 296 356 290 289 271 309 197 194 163 154 163 289 291 291 288 257 243 235 233 237
322 312 344 336 1 28 14 20 9 352 4 347 317 285 268 262 266 242 231 266 297 285 287 273 290 275 280 281 260 216 203 175 168 171 182 263 254 13 343 323 214 212 221
344 9 3 351 347 2 12 14 346 326 339 319 292 273 265 256 248 247 240 231 253 292 294 311 312 273 261 305 281 268 197 197 180 165 171 188 261 304 307 304 291 247 238
344 335 356 355 345 353 352 335 324 311 317 310 293 313 300 296 308 295 258 236 238 249 276 283 282 266 276 229 257 239 251 177 158 176 185 193 212 239 267 272 287 318 317
351 346 335 325 316 311 317 310 280 293 307 300 293 283 289 289 288 302 297 298 285 246 262 280 263 284 310 299 255 252 289 198 183 194 197 206 211 214 220 232 253 275 291
319 325 314 305 284 278 255 252 268 271 269 279 298 296 286 274 279 281 287 276 275 281 275 284 282 296 292 298 298 297 284 256 206 207 213 219 216 205 210 219 236 251 260
295 310 326 316 318 306 299 299 304 328 3 342 327 321 306 279 276 267 271 284 306 322 329 313 295 299 307 317 310 315 295 304 299 272 198 216 213 211 215 215 220 236 254
322 319 319 318 314 323 333 10 353 347 339 332 326 318 311 304 288 284 316 327 318 331 322 317 313 310 309 304 287 285 293 291 281 296 294 225 207 215 218 228 227 228 236
319 333 328 320 317 317 38 17 0 346 332 320 312 302 297 301 306 267 257 267 298 303 310 299 297 305 300 301 296 333 327 332 322 333 332 335 339 232 238 223 228 240 231
330 313 309 311 323 352 76 42 23 339 329 321 308 299 293 295 295 313 281 250 226 234 257 264 274 280 289 301 327 332 334 345 326 328 21 324 352 323 328 263 227 99 59
307 300 298 305 348 41 70 37 4 324 315 317 308 307 308 311 325 320 356 345 331 284 277 279 273 270 276 282 294 300 301 299 283 306 349 305 323 298 282 302 145 137 356
300 295 307 351 351 359 343 348 345 310 316 310 312 312 312 313 317 317 310 292 297 290 267 248 241 253 261 270 275 295 305 303 295 281 270 272 268 267 276 283 300 301 225
297 328 14 4 348 331 314 353 307 311 303 309 302 299 297 303 303 304 300 287 281 277 274 268 271 274 278 273 266 268 263 270 280 278 277 249 253 259 253 269 258 254 261
338 56 23 335 324 315 341 345 339 313 310 313 311 307 304 312 12 358 337 301 287 279 287 298 299 299 290 263 258 248 243 241 251 269 249 262 275 299 282 231 232 249 236